Date,TemperatureHighF,TemperatureAvgF,TemperatureLowF,DewpointHighF,DewpointAvgF,DewpointLowF,HumidityHigh,HumidityAvg,HumidityLow,PressureMaxIn,PressureMinIn,WindSpeedMaxMPH,WindSpeedAvgMPH,GustSpeedMaxMPH,PrecipitationSumIn
2012-3-23,47,40,32,26,21,16,74,48,30,30.26,30.06,8,1,8,0.08
2012-3-24,53,42,32,25,22,18,70,48,28,30.26,30.00,8,1,10,0.00
2012-3-25,64,50,38,30,22,15,49,35,16,30.03,29.73,9,1,9,0.00
2012-3-26,49,41,36,36,32,28,84,70,47,29.97,29.76,10,1,10,1.02
2012-3-27,50,42,32,38,30,25,80,65,39,30.03,29.85,8,0,10,0.04
2012-3-28,53,46,40,39,29,17,86,54,27,30.00,29.79,8,1,13,0.01
2012-3-29,50,45,41,40,33,24,79,63,42,29.97,29.68,10,2,17,0.29
2012-3-30,50,46,42,42,32,25,84,57,43,29.85,29.59,18,1,18,0.79
2012-3-31,52,43,38,38,33,27,80,68,48,29.85,29.52,10,1,13,0.16
2012-4-1,50,42,36,33,24,12,81,52,24,30.23,29.70,16,2,16,0.12
2012-4-2,52,42,34,25,20,16,68,44,26,30.41,30.20,10,2,10,0.00
2012-4-3,63,46,34,26,18,10,56,36,13,30.20,29.85,15,2,15,0.00
2012-4-4,46,38,34,30,27,20,82,66,38,30.08,29.85,15,2,24,2.82
2012-4-5,43,36,33,28,25,20,80,64,40,30.17,30.08,4,0,4,0.47
2012-4-6,46,36,28,29,23,18,80,60,33,30.32,30.14,6,1,8,0.00
2012-4-7,54,42,32,25,16,3,72,41,14,30.38,30.32,8,0,8,0.00
2012-4-8,61,47,33,20,11,2,51,27,11,30.38,30.17,10,2,10,0.00
2012-4-9,66,55,44,20,9,1,27,16,10,30.17,30.03,5,0,7,0.00
2012-4-10,70,57,46,24,18,8,34,22,9,30.03,29.85,10,0,10,0.00
2012-4-11,70,55,46,30,26,21,47,33,17,29.85,29.61,14,1,14,0.04
2012-4-12,67,56,44,34,21,10,57,27,14,29.88,29.79,14,3,14,0.00
2012-4-13,69,52,36,30,17,4,67,31,10,29.94,29.82,9,2,9,0.00
2012-4-14,68,51,34,27,16,6,56,29,10,30.06,29.88,13,1,13,0.00
2012-4-15,63,52,46,27,20,10,42,29,16,30.20,30.06,11,1,11,0.00
2012-4-16,52,46,40,44,33,21,77,61,38,30.14,30.06,9,1,9,0.28
2012-4-17,60,49,37,37,22,11,69,39,17,30.23,30.08,15,2,15,0.00
2012-4-18,56,48,43,41,32,27,67,55,38,30.11,30.03,8,0,8,0.16
2012-4-19,64,51,38,42,25,8,79,42,14,30.20,30.08,11,1,11,0.16
2012-4-20,64,55,48,47,37,26,87,55,25,30.23,30.08,19,2,19,0.04
2012-4-21,72,60,51,42,34,27,68,41,21,30.23,30.17,9,1,9,0.00
2012-4-22,80,63,46,38,33,22,69,38,12,30.20,30.00,8,1,8,0.00
2012-4-23,86,68,52,41,34,16,59,32,8,30.03,29.85,8,2,8,0.00
2012-4-24,81,66,57,48,38,26,68,38,21,29.97,29.88,17,3,17,0.00
2012-4-25,79,63,50,43,34,20,58,36,13,30.00,29.79,12,2,12,0.00
2012-4-26,59,54,47,49,40,18,75,60,32,29.97,29.58,12,2,12,0.55
2012-4-27,62,49,37,26,19,10,61,33,16,30.26,29.97,13,3,13,0.00
2012-4-28,65,51,36,28,21,14,62,35,16,30.29,30.17,11,2,11,0.00
2012-4-29,65,53,41,34,30,25,72,44,25,30.20,29.76,13,2,13,0.00
2012-4-30,64,53,43,48,32,15,96,50,16,29.79,29.61,17,3,17,0.16
2012-5-1,57,46,37,34,23,17,87,43,26,29.85,29.70,13,2,13,0.16
2012-5-2,52,42,37,40,31,21,94,66,37,29.91,29.79,13,1,13,0.28
2012-5-3,50,44,38,47,37,25,98,76,42,29.88,29.70,10,0,10,0.71
2012-5-4,55,47,40,44,29,22,98,52,31,30.11,29.82,13,3,13,0.00
2012-5-5,59,49,34,28,19,10,77,33,17,30.32,30.11,17,3,17,0.00
2012-5-6,62,50,38,26,21,14,54,35,16,30.38,30.32,9,2,9,0.00
2012-5-7,68,52,35,32,24,12,80,40,12,30.35,30.11,6,1,6,0.00
2012-5-8,75,59,41,36,27,14,76,37,10,30.14,29.88,12,1,12,0.00
2012-5-9,67,56,44,34,17,0,49,24,10,30.00,29.88,16,4,16,0.00
2012-5-10,59,47,34,14,6,-2,34,20,12,30.20,30.00,14,2,14,0.00
2012-5-11,63,48,30,23,12,4,66,29,11,30.26,30.14,8,0,8,0.00
2012-5-12,71,53,34,26,17,7,66,29,9,30.29,30.17,7,1,7,0.00
2012-5-13,78,59,39,31,21,8,69,30,8,30.23,30.08,6,1,6,0.00
2012-5-14,85,65,45,34,23,9,58,27,6,30.11,29.97,6,0,6,0.00
2012-5-15,88,68,47,39,28,11,68,30,6,30.00,29.85,11,1,11,0.00
2012-5-16,79,65,54,32,20,7,41,21,7,29.94,29.85,13,3,13,0.00
2012-5-17,70,58,46,30,20,7,50,25,10,29.88,29.76,13,2,13,0.00
2012-5-18,68,54,41,22,12,3,39,21,10,30.00,29.79,13,3,13,0.00
2012-5-19,70,56,43,26,17,4,47,24,10,30.06,30.00,14,2,14,0.00
2012-5-20,70,58,44,40,28,19,56,34,17,30.06,30.00,13,1,13,0.00
2012-5-21,66,56,51,56,48,28,97,76,46,30.00,29.68,13,1,13,0.20
2012-5-22,64,54,49,46,33,22,75,47,23,29.85,29.79,7,2,13,0.00
2012-5-23,60,49,43,45,35,28,94,60,34,29.85,29.79,20,2,20,0.08
2012-5-24,62,51,42,43,31,24,96,49,25,29.82,29.73,11,2,11,0.00
2012-5-25,66,56,46,30,18,7,50,25,11,29.88,29.79,17,3,17,0.00
2012-5-26,66,57,48,24,17,10,35,22,13,29.88,29.79,13,2,13,0.00
2012-5-27,71,57,40,33,26,16,70,34,15,29.88,29.82,14,2,14,0.00
2012-5-28,72,60,47,33,28,20,53,31,16,30.00,29.88,15,3,15,0.00
2012-5-29,65,58,48,38,27,15,63,33,15,30.03,29.94,15,3,15,0.00
2012-5-30,71,59,47,32,26,18,53,29,14,30.11,30.03,11,2,11,0.00
2012-5-31,70,62,56,47,38,28,63,41,30,30.08,30.00,11,2,11,0.00
2012-6-1,79,66,55,58,45,33,92,53,22,30.00,29.73,13,1,13,0.00
2012-6-2,72,62,52,54,39,28,95,49,22,29.85,29.73,17,2,17,0.31
2012-6-3,69,60,52,38,33,28,55,36,23,29.91,29.85,10,1,10,0.00
2012-6-4,75,60,53,55,48,37,97,70,31,29.91,29.64,11,1,11,0.28
2012-6-5,54,50,48,52,47,42,98,89,71,29.94,29.70,10,1,10,0.31
2012-6-6,50,44,40,44,38,32,93,78,55,30.03,29.88,13,2,13,0.35
2012-6-7,64,49,37,45,38,31,93,68,33,30.03,29.88,8,0,8,0.00
2012-6-8,63,52,46,46,34,21,90,55,22,29.91,29.85,13,2,13,0.04
2012-6-9,51,46,40,46,38,29,89,75,50,29.88,29.85,11,1,11,0.31
2012-6-10,69,56,45,44,35,31,67,47,26,30.11,29.88,13,2,13,0.00
2012-6-11,78,62,50,45,37,24,79,45,16,30.14,30.03,8,1,8,0.00
2012-6-12,73,61,49,55,42,34,85,53,25,30.03,29.82,10,1,10,0.08
2012-6-13,61,55,50,54,48,42,94,79,53,29.97,29.85,6,1,8,0.31
2012-6-14,71,58,46,47,33,16,92,45,15,30.00,29.91,13,2,13,0.00
2012-6-15,74,60,47,34,27,13,57,31,11,30.11,29.94,8,2,8,0.00
2012-6-16,80,64,48,52,35,22,70,38,13,30.11,29.85,13,1,13,0.00
2012-6-17,77,67,56,50,34,14,71,35,11,29.85,29.67,14,2,14,0.00
2012-6-18,63,54,50,44,36,28,71,50,34,29.85,29.67,13,2,13,0.00
2012-6-19,68,56,45,44,32,25,75,41,23,30.08,29.85,11,2,11,0.00
2012-6-20,73,61,46,38,29,14,66,34,11,30.14,29.97,10,1,10,0.00
2012-6-21,84,70,54,40,31,16,49,27,8,29.97,29.70,8,1,8,0.00
2012-6-22,85,71,56,54,37,28,89,32,16,29.79,29.58,13,1,13,0.08
2012-6-23,74,62,56,59,48,38,97,65,31,29.85,29.70,10,1,10,0.04
2012-6-24,73,62,56,58,46,30,96,60,22,29.97,29.76,9,1,9,0.20
2012-6-25,76,65,57,47,39,31,68,40,20,29.94,29.79,11,1,11,0.00
2012-6-26,61,52,48,50,46,38,93,79,44,29.97,29.70,13,2,13,0.59
2012-6-27,72,58,49,47,37,28,94,49,22,30.06,29.97,11,1,11,0.00
2012-6-28,83,65,48,41,36,17,74,40,9,30.00,29.88,8,1,8,0.00
2012-6-29,78,70,61,46,38,31,56,32,22,30.06,29.91,13,2,13,0.00
2012-6-30,79,67,58,51,46,38,76,50,24,30.00,29.85,7,1,7,0.00
2012-7-1,79,68,61,56,44,32,79,48,21,29.94,29.88,12,2,12,0.00
2012-7-2,81,68,54,48,36,25,75,35,17,29.94,29.73,10,1,10,0.00
2012-7-3,69,62,51,43,29,8,58,31,10,30.00,29.70,16,4,16,0.00
2012-7-4,72,59,44,34,29,18,60,34,14,30.03,29.94,8,1,8,0.00
2012-7-5,80,63,47,41,30,15,76,36,10,30.00,29.94,8,1,8,0.00
2012-7-6,86,68,50,42,31,16,70,32,8,30.08,30.00,8,0,8,0.00
2012-7-7,93,74,55,45,33,6,66,29,4,30.11,30.00,8,0,8,0.00
2012-7-8,96,78,60,50,37,16,66,29,6,30.08,29.97,6,0,6,0.00
2012-7-9,90,78,67,49,43,37,48,31,18,30.08,29.94,9,0,9,0.00
2012-7-10,93,79,66,52,39,18,56,28,7,30.06,29.97,8,0,8,0.00
2012-7-11,95,78,63,54,42,18,69,33,7,30.03,29.91,6,0,6,0.00
2012-7-12,95,78,62,54,40,16,73,35,6,29.97,29.85,6,0,6,0.04
2012-7-13,95,81,68,52,40,20,56,26,9,29.94,29.85,9,1,9,0.00
2012-7-14,88,76,66,63,49,38,90,42,19,29.97,29.85,6,1,8,0.04
2012-7-15,78,70,64,62,50,44,88,52,32,29.88,29.82,10,1,10,0.08
2012-7-16,89,74,59,54,43,36,66,36,19,29.91,29.79,15,1,15,0.00
2012-7-17,84,72,62,63,50,37,92,52,20,29.88,29.82,9,1,9,0.20
2012-7-18,90,75,61,58,45,24,83,41,10,29.94,29.85,8,1,8,0.00
2012-7-19,92,78,63,53,44,31,67,33,12,30.03,29.91,11,1,11,0.00
2012-7-20,86,71,60,63,50,39,87,52,20,30.11,29.91,13,1,13,0.20
2012-7-21,80,67,55,52,43,34,82,46,20,30.17,30.03,8,1,8,0.00
2012-7-22,88,71,56,53,37,14,84,38,8,30.06,29.85,10,1,10,0.00
2012-7-23,73,62,51,32,26,14,44,27,13,30.14,29.97,13,3,13,0.00
2012-7-24,82,66,50,41,33,22,69,32,12,30.06,29.97,8,1,8,0.00
2012-7-25,86,70,56,48,38,23,72,36,11,30.06,29.94,8,1,8,0.00
2012-7-26,92,74,58,50,37,16,74,34,7,30.00,29.88,6,1,6,0.00
2012-7-27,90,74,60,48,36,18,64,30,9,29.94,29.88,8,1,8,0.00
2012-7-28,84,70,57,38,28,9,48,24,6,30.08,29.94,9,1,9,0.00
2012-7-29,87,69,52,43,28,9,69,29,6,30.11,30.00,8,0,8,0.00
2012-7-30,87,70,54,45,33,16,68,31,8,30.03,29.97,9,1,9,0.00
2012-7-31,86,71,58,36,25,9,40,21,6,30.08,30.00,10,2,10,0.00
2012-8-1,88,70,53,40,25,9,59,23,6,30.11,30.00,11,1,11,0.00
2012-8-2,82,70,57,36,25,12,36,20,12,30.06,29.97,11,2,11,0.00
2012-8-3,82,68,52,33,22,10,46,21,7,30.11,30.03,8,1,8,0.00
2012-8-4,89,71,52,40,30,16,59,27,8,30.11,30.00,8,0,8,0.00
2012-8-5,94,75,56,44,32,16,61,28,6,30.06,29.97,7,0,7,0.00
2012-8-6,91,76,62,49,39,17,59,31,7,30.14,30.00,11,1,11,0.00
2012-8-7,96,77,60,52,33,6,70,30,4,30.11,29.94,12,1,12,0.00
2012-8-8,90,76,63,43,30,13,45,20,7,30.11,29.94,9,2,9,0.00
2012-8-9,90,72,54,35,22,8,45,19,5,30.17,30.00,8,0,8,0.00
2012-8-10,91,71,52,41,26,8,64,26,5,30.06,29.94,9,1,9,0.00
2012-8-11,91,73,55,40,24,6,57,22,4,30.08,29.97,8,0,8,0.00
2012-8-12,93,74,56,42,26,6,57,23,4,30.08,29.97,6,1,6,0.00
2012-8-13,96,75,56,40,24,6,49,21,4,30.03,29.91,11,1,11,0.00
2012-8-14,92,75,54,36,23,6,47,18,4,29.94,29.82,12,2,12,0.00
2012-8-15,82,73,64,31,23,14,26,16,9,30.08,29.91,10,2,10,0.00
2012-8-16,87,71,57,33,21,8,37,19,6,30.11,30.03,7,0,7,0.00
2012-8-17,91,71,52,34,23,8,50,22,5,30.14,30.03,8,0,8,0.00
2012-8-18,95,75,56,38,26,6,51,22,4,30.08,29.94,8,0,8,0.00
2012-8-19,95,77,61,39,25,6,42,19,4,30.00,29.91,8,0,8,0.00
2012-8-20,92,76,63,37,20,6,35,15,4,30.06,29.94,13,1,13,0.00
2012-8-21,78,67,60,56,42,17,83,43,15,30.03,29.91,14,1,14,0.12
2012-8-22,77,64,53,51,34,24,70,35,15,30.08,29.91,10,2,10,0.00
2012-8-23,78,63,49,43,29,8,77,35,8,30.00,29.91,13,1,13,0.00
2012-8-24,73,60,48,26,18,8,38,21,8,30.14,29.91,13,2,13,0.00
2012-8-25,78,61,44,31,22,10,55,27,8,30.08,29.88,8,1,8,0.00
2012-8-26,87,67,50,33,22,9,47,22,6,29.91,29.82,10,0,11,0.00
2012-8-27,83,68,56,32,24,15,34,20,9,30.11,29.91,15,2,15,0.00
2012-8-28,83,67,49,36,27,15,60,27,9,30.08,29.91,14,1,14,0.00
2012-8-29,75,63,51,31,22,13,39,23,11,30.14,30.00,10,2,10,0.00
2012-8-30,78,61,45,33,23,7,60,29,8,30.11,29.94,9,1,9,0.00
2012-8-31,83,63,46,33,21,6,58,26,6,29.94,29.88,8,1,8,0.00
2012-9-1,76,62,49,28,16,6,40,19,8,30.11,29.91,12,2,12,0.00
2012-9-2,76,62,49,24,12,6,25,14,8,30.17,30.08,10,2,10,0.00
2012-9-3,80,62,44,29,19,8,51,23,7,30.17,30.08,13,1,13,0.00
2012-9-4,80,64,48,33,22,8,50,24,7,30.23,30.14,10,1,10,0.00
2012-9-5,82,64,46,33,24,10,57,27,7,30.17,30.00,14,1,14,0.00
2012-9-6,74,62,51,38,29,18,57,32,13,30.23,30.08,10,2,10,0.00
2012-9-7,80,62,46,37,26,10,66,31,7,30.41,30.23,6,0,6,0.00
2012-9-8,85,65,46,34,23,8,58,27,6,30.47,30.29,6,0,6,0.00
2012-9-9,82,70,59,31,21,8,25,16,7,30.29,30.20,15,2,15,0.00
2012-9-10,69,59,49,35,21,4,47,26,10,30.44,30.26,10,3,13,0.00
2012-9-11,66,51,37,22,13,4,51,24,10,0.00,40.00,10,1,10,0.00
2012-9-12,69,52,34,22,14,7,51,26,10,30.35,30.26,6,0,6,0.00
2012-9-13,78,57,39,26,19,7,53,27,8,30.32,30.14,6,0,6,0.00
2012-9-14,81,61,43,31,21,6,59,27,7,30.14,29.94,6,0,6,0.00
2012-9-15,81,63,48,30,20,7,43,21,7,30.06,30.00,5,0,5,0.00
2012-9-16,80,61,45,32,22,6,57,28,7,30.14,30.06,8,0,8,0.00
2012-9-17,78,59,43,28,17,6,50,23,8,30.14,30.06,6,0,6,0.00
2012-9-18,83,62,44,29,18,7,50,23,6,30.11,30.00,6,1,6,0.00
2012-9-19,80,62,46,30,22,10,46,24,10,30.11,30.06,6,0,6,0.00
2012-9-20,83,63,46,32,24,12,55,27,9,30.14,30.03,5,0,5,0.00
2012-9-21,83,63,47,34,27,17,55,29,9,30.08,29.94,4,0,4,0.00
2012-9-22,78,62,48,39,32,21,68,36,13,30.03,29.94,8,1,8,0.00
2012-9-23,68,60,51,46,34,29,72,39,24,30.08,30.00,8,1,13,0.00
2012-9-24,74,58,45,41,33,28,77,42,21,30.11,29.97,7,1,7,0.00
2012-9-25,74,57,45,42,35,30,81,47,22,30.00,29.94,11,1,11,0.00
2012-9-26,72,56,43,44,34,26,84,49,22,30.08,30.00,6,0,6,0.00
2012-9-27,74,57,42,39,33,23,82,45,16,30.08,29.97,5,0,5,0.00
2012-9-28,76,58,42,39,30,12,79,40,10,30.00,29.88,8,0,8,0.00
2012-9-29,78,62,49,34,30,23,50,31,15,30.08,29.97,13,1,13,0.00
2012-9-30,73,58,46,36,21,4,67,29,9,30.23,30.08,9,1,9,0.00
2012-10-1,75,57,39,27,20,6,53,26,11,30.26,29.91,9,0,9,0.00
2012-10-2,70,54,41,34,18,-4,59,28,10,30.14,29.88,15,3,15,0.00
2012-10-3,60,44,33,25,15,-2,68,34,14,30.41,30.14,8,1,8,0.00
2012-10-4,56,44,35,18,10,-2,50,28,12,30.32,30.23,10,1,10,0.00
2012-10-5,58,41,25,16,7,-2,53,27,12,30.38,30.29,8,0,8,0.00
2012-10-6,59,42,25,17,10,3,55,30,12,30.35,30.17,5,0,5,0.00
2012-10-7,66,45,28,21,12,3,61,31,10,30.20,29.97,6,0,6,0.00
2012-10-8,68,50,32,24,13,4,55,27,10,30.00,29.88,7,0,7,0.00
2012-10-9,66,49,34,25,20,14,57,34,15,30.08,29.97,6,0,6,0.00
2012-10-10,68,49,33,29,24,13,77,41,12,30.03,29.88,6,0,6,0.00
2012-10-11,66,49,34,30,26,21,75,44,20,30.00,29.82,4,0,4,0.00
2012-10-12,66,48,33,39,27,21,81,48,20,29.94,29.82,8,0,8,0.00
2012-10-13,61,54,50,48,42,36,87,64,40,30.17,29.94,9,1,9,0.00
2012-10-14,66,57,50,50,41,30,87,59,27,30.14,29.94,10,1,10,0.04
2012-10-15,66,58,54,55,45,35,95,65,34,29.94,29.61,13,1,13,0.47
2012-10-16,59,52,39,58,30,10,98,49,15,30.03,29.50,17,4,17,0.00
2012-10-17,53,42,33,28,22,16,76,48,26,30.26,30.03,10,2,10,0.00
2012-10-18,58,45,34,29,23,19,75,45,25,30.26,29.85,5,0,5,0.00
2012-10-19,64,52,43,48,35,23,89,53,34,29.88,29.64,15,2,15,0.04
2012-10-20,50,43,36,40,21,6,71,45,19,29.85,29.67,13,3,13,0.00
2012-10-21,47,37,30,33,25,21,86,63,38,29.91,29.85,12,1,12,0.00
2012-10-22,46,37,31,36,29,21,95,76,38,29.85,29.55,8,1,10,0.16
2012-10-23,46,36,30,39,31,23,95,81,43,29.97,29.70,8,0,8,0.04
2012-10-24,45,36,28,39,31,25,94,83,52,30.11,29.94,10,0,10,0.04
2012-10-25,42,38,35,39,35,31,94,87,73,30.38,30.11,6,0,6,0.12
2012-10-26,40,36,32,35,32,28,92,87,78,30.38,30.08,6,0,6,0.04
2012-10-27,44,40,37,42,39,35,97,93,87,30.08,29.85,6,0,6,0.12
2012-10-28,52,46,41,51,45,40,98,96,90,29.91,29.82,5,0,5,0.12
2012-10-29,63,51,45,56,44,36,98,78,39,30.00,29.79,12,1,12,0.35
2012-10-30,52,49,46,52,45,38,98,87,67,30.00,29.88,8,0,8,0.28
2012-10-31,58,52,49,56,51,43,98,94,72,29.91,29.73,7,0,7,0.00
2012-11-1,57,48,43,50,41,30,98,79,39,30.03,29.82,9,0,9,0.12
2012-11-2,55,48,43,43,40,36,94,76,50,30.11,30.03,6,0,6,0.00
2012-11-3,51,46,40,50,45,39,98,97,93,30.14,30.03,6,0,6,0.20
2012-11-4,59,53,47,54,46,42,98,80,57,30.29,30.14,9,1,9,0.00
2012-11-5,60,52,42,48,45,40,95,77,54,30.23,30.11,14,0,14,0.00
2012-11-6,55,48,42,51,45,41,98,90,69,30.20,29.88,8,0,8,0.04
2012-11-7,52,42,29,49,25,15,89,51,28,30.03,29.88,11,1,11,0.00
2012-11-8,45,34,26,33,26,16,98,74,34,29.97,29.70,9,0,9,0.04
2012-11-9,33,30,25,33,29,22,98,93,85,29.91,29.76,0,0,0,0.00
2012-11-10,30,25,20,24,17,12,89,72,50,30.14,29.88,0,0,0,0.00
2012-11-11,33,27,19,24,21,15,86,76,59,30.29,30.14,0,0,0,0.00
2012-11-12,34,32,30,31,29,24,92,87,76,30.26,30.17,0,0,0,0.00
2012-11-13,38,35,33,35,33,31,95,93,89,30.23,30.14,0,0,0,0.24
2012-11-14,36,35,34,35,33,32,98,95,92,30.32,30.11,3,0,3,0.24
2012-11-15,43,36,34,36,32,29,98,86,65,30.32,30.00,4,0,4,0.00
2012-11-16,44,37,31,34,31,27,89,78,53,30.00,29.94,4,0,4,0.00
2012-11-17,48,40,34,44,36,31,95,84,54,29.94,29.58,11,0,11,0.20
2012-11-18,46,40,32,37,27,20,90,63,40,29.94,29.70,14,2,14,0.00
2012-11-19,49,44,40,45,37,22,98,77,44,29.85,29.70,22,4,22,0.47
2012-11-20,48,45,41,48,45,41,98,98,95,29.82,29.70,11,1,11,0.39
2012-11-21,45,40,30,42,33,21,98,78,48,30.17,29.64,16,2,16,0.24
2012-11-22,42,34,28,33,27,20,96,79,42,30.41,30.17,6,0,6,0.00
2012-11-23,43,38,32,42,30,24,98,75,53,30.35,30.03,9,0,9,0.28
2012-11-24,45,40,33,43,35,29,98,85,55,30.14,30.03,10,1,10,0.00
2012-11-25,40,33,26,35,28,19,97,83,45,30.29,30.08,6,0,6,0.00
2012-11-26,34,29,26,30,27,24,98,92,86,30.29,30.14,4,0,4,0.00
2012-11-27,37,31,28,30,25,20,96,78,52,30.20,30.08,5,0,5,0.00
2012-11-28,37,33,27,32,25,21,88,75,53,30.08,29.82,6,0,6,0.16
2012-11-29,41,37,32,40,35,29,98,95,88,29.88,29.67,3,0,3,0.08
2012-11-30,50,44,40,49,42,34,98,90,57,29.67,29.55,12,0,12,0.31
2012-12-1,48,43,38,45,33,20,98,70,38,29.70,29.55,14,2,14,0.12
2012-12-2,45,40,38,43,32,24,98,75,48,29.85,29.26,15,2,15,0.39
2012-12-3,49,42,37,29,25,22,63,51,40,30.06,29.85,15,2,15,0.00
2012-12-4,50,44,39,46,38,21,98,79,40,29.94,29.73,20,2,20,0.20
2012-12-5,48,39,33,47,24,16,98,57,38,30.14,29.73,15,2,15,0.00
2012-12-6,37,34,31,30,26,18,84,70,54,30.11,29.94,11,2,11,0.00
2012-12-7,41,34,28,35,28,16,95,78,51,30.00,29.76,13,2,13,0.08
2012-12-8,35,26,19,17,11,7,72,54,33,30.26,29.91,8,1,8,0.00
2012-12-9,29,23,15,26,16,8,86,77,61,30.35,30.17,3,0,3,0.00
2012-12-10,33,31,28,28,26,24,91,82,69,30.20,30.00,0,0,0,0.00
2012-12-11,38,34,32,34,30,27,91,86,81,30.00,29.58,5,0,5,0.08
2012-12-12,36,33,32,33,31,30,95,90,87,29.97,29.58,4,0,4,0.16
2012-12-13,34,32,27,32,30,24,96,92,88,30.03,29.85,2,0,2,0.04
2012-12-14,32,30,26,30,28,24,95,92,88,29.91,29.76,0,0,0,0.00
2012-12-15,34,31,29,30,28,24,96,87,70,29.91,29.61,0,0,0,0.00
2012-12-16,35,32,28,32,27,22,97,83,61,29.79,29.26,8,0,8,0.00
2012-12-17,39,35,28,37,24,13,98,66,42,29.79,29.20,23,4,23,0.59
2012-12-18,34,28,22,23,19,15,83,70,51,29.94,29.79,9,1,9,0.00
2012-12-19,34,29,23,28,20,11,88,70,40,30.00,29.91,14,2,14,0.00
2012-12-20,40,35,32,31,25,14,91,69,39,29.91,29.73,12,1,12,0.04
2012-12-21,39,35,33,34,31,28,92,86,74,29.91,29.79,6,0,6,0.20
2012-12-22,38,35,29,36,32,26,96,91,85,29.82,29.64,15,1,15,0.16
2012-12-23,38,34,29,34,28,21,98,82,52,29.88,29.61,8,0,8,0.00
2012-12-24,37,33,30,34,30,25,94,89,75,30.14,29.64,5,0,5,0.00
2012-12-25,35,31,25,30,27,23,93,87,72,30.14,29.82,5,0,5,0.04
2012-12-26,34,31,27,30,25,18,92,80,53,29.91,29.79,0,0,0,0.00
2012-12-27,35,31,29,31,26,20,92,81,58,30.08,29.88,4,0,4,0.00
2012-12-28,34,30,26,26,24,20,85,80,63,30.14,30.08,0,0,0,0.00
2012-12-29,28,25,21,23,20,16,87,80,60,30.14,30.06,0,0,0,0.00
2012-12-30,29,25,22,21,19,15,86,77,57,30.26,30.11,0,0,0,0.00
2012-12-31,30,24,16,20,16,10,82,72,52,30.38,30.23,0,0,0,0.00
2013-1-1,25,22,15,17,14,8,78,73,65,30.53,30.38,0,0,0,0.00